User: anonymous   Login
Location: Walnut Point State Park
(39.6958°N, 88.0345°W)
Time: 05:31:39
(UTC-05:00)
Language:

Iridium 75 - Orbit

View from above orbital plane
View from above orbital plane
View from above satellite
View from above satellite

Ground track
Ground track

The orbit data is extracted from the following two-line orbital elements,

1 25346U 98032E   16209.43875895  .00000029  00000-0  34641-5 0  9993
2 25346  86.3971 359.8658 0002185  91.2175 321.1520 14.34213084953125
Epoch (UTC): 27 July 2016 10:31:48
Eccentricity: 0.0002185
inclination: 86.3971°
perigee height: 776 km
apogee height: 779 km
right ascension of ascending node: 359.8658°
argument of perigee: 91.2175°
revolutions per day: 14.34213084
mean anomaly at epoch: 321.1520°
orbit number at epoch: 95312

The dashed part of the orbit path shows where the satellite is in the earth's shadow,  

DLR